COSMOS 1943

Satellite information

Favourite Embed

Satellite Type and Status

PAYLOADIN ORBIT

Key statistics

Satellite COSMOS 1943 at a glance.

Uptime

13670

Days in orbit

Revolutions

≈ 14.2

Per day

Orbit

LEO

Low Earth Orbit

Inclination

71.0

Latest

Satellite identification and parameters

Extended collection of information and parameters for COSMOS 1943.

Object identification

Identified? True

Debris? False

Object name: COSMOS 1943

International designator: 1988-039A

Object number (NORAD): 19119

Object ID (CCSDS): 19119

Country: COMMONWEALTH OF INDEPENDENT STATES (CIS)

Current information (Y/N): Y

RCS size: LARGE

Orbital parameters

Period: 101.717 minutes

Inclination: 71.0033 deg

SMA: 7218.075 km

Apoapsis: 846.642 km

Periapsis: 833.238 km

RAAN: 185.9417 deg

Eccentricy: 0.0009285

Argument of periapsis: 108.6568 deg

Mean anomaly: 339.0461 deg

Mean motion: 14.1569827 rev/day

Mean motion (dot): 0.00000354 rev/day2

B* drag term: 0.00020451464 1/REarth

Two-line elements (TLE)

Creation date: Oct. 18, 2025, 2:17 a.m.

Reference frame: TEME

Reference center: EARTH

Epoch: Oct. 17, 2025, 11:23 p.m. UTC

TLE line 0: 0 COSMOS 1943

TLE line 1: 1 19119U 88039A 25290.97434797 .00000354 00000-0 20451-3 0 9994

TLE line 2: 2 19119 71.0033 185.9417 0009285 108.6568 339.0461 14.15698270932610

Live tracking on map

Real-time ground track for satellite COSMOS 1943.

In-orbit conjunctions

A list of the most updated potential collisions computed for object COSMOS 1943.

Target Orbit TCA Probability of collision Miss distance Type
COSMOS 2237 LEO 2025-02-23 05:27:55 0.0001124009 562.0 (m) PAYLOAD
FENGYUN 1C DEB SSO 2024-07-07 19:03:36 0.0001512603 607.0 (m) DEBRIS

Associated space launch

Second generation ELING satellite

COSMOS 1943 was lifted into orbit during the mission ‘Zenit-2 | Tselina-2 5’, on board a Zenit-2 space rocket.

The launch took place on May 15, 1988, 9:20 a.m. from 45/1.

For more information about the launch, click the button.

Launch to space Zenit-2 | Tselina-2 5
Zenit-2 | Tselina-2 5

Agency: N/A

Status: Launch Successful

Launch date: May 15, 1988, 9:20 a.m. UTC

Rocket: Zenit-2

Launch pad: 45/1

Location: Baikonur Cosmodrome, Republic of Kazakhstan

...

Latest news about this satellite

There are no fresh news available about this satellite. Check back as we update our databases every day.


Newsletter sign-up

Weekly statistics, charts and insights to help you stay on top of the space industry.